Retour au catalogue

LILIUM-4

ActifRadio amateurSSO
NORAD 71922·PAYLOAD·🇹🇼 Taiwan

Lancé Mar 30, 2026 depuis Vandenberg Space Force Base

Loading…

Prochains Passages (prochaines 24 heures)

TLE

PériméSource: AMSAT

Époque: Mar 30, 2026, 12:01 UTC

1 71922C 26067AC  26089.50133053 -.00014632  00000 0 -74472-3 0    04
2 71922  97.4497  49.1617 0004341   5.9603 355.7042 15.16896692    16

Suivez LILIUM-4 en temps réel avec AllMySat

Download on the App Store